Seattle Boeing, WA
on Tuesday, January 15, 2013

Tuesday
Previous Day Next Day
Daily Summary
 ActualAverage (KSEA)Record (KSEA)
Temperature
Mean Temperature °F 42°F  
Max Temperature 45°F 47°F 58°F (1974)
Min Temperature 34°F 37°F 15°F (1950)
Degree Days
Heating Degree Days 26 23  
Month to date heating degree days 353  
Since 1 July heating degree days 2291  
Cooling Degree Days 0 0  
Month to date cooling degree days 0  
Year to date cooling degree days 0  
Moisture
Dew Point 30°F   
Average Humidity 72    
Maximum Humidity 85    
Minimum Humidity 55    
Precipitation
Precipitation 0.00 in 0.19 in 1.68 in (1996)
Month to date precipitation 2.83  
Year to date precipitation 2.83  
Snow
Snow 0.00 in in 3.60 in (1969)
Month to date snowfall  
Since 1 July snowfall  
Snow Depth in   
Wind
Wind Speed 1 mph   
Max Wind Speed 6 mph   
Max Gust Speed mph   
Visibility 10 miles   
Events     

Key: T is trace of precipitation, MM is missing value
Source: NWS Daily Summary
Time(PST)TemperatureDew PointHumidity Pressure Visibility Wind DirectionWind SpeedGust SpeedPrecipitationEvents Conditions
12:53 AM 37.9°F 30.9°F 76% 30.58 in 10.0 miles Calm Calm - N/A   Overcast
1:53 AM 37.9°F 30.9°F 76% 30.60 in 10.0 miles Calm Calm - N/A   Overcast
2:03 AM 37.4°F 30.2°F 75% 30.61 in 10.0 miles Calm Calm - N/A   Overcast
2:53 AM 37.4°F 30.2°F 75% 30.62 in 10.0 miles Calm Calm - N/A   Overcast
3:53 AM 37.0°F 30.0°F 76% 30.63 in 10.0 miles Calm Calm - N/A   Overcast
4:53 AM 35.1°F 30.0°F 82% 30.63 in 10.0 miles ESE 3.5 mph - N/A   Overcast
5:53 AM 35.1°F 30.0°F 82% 30.63 in 10.0 miles Calm Calm - N/A   Overcast
6:53 AM 36.0°F 30.0°F 79% 30.65 in 10.0 miles Calm Calm - N/A   Overcast
7:53 AM 34.0°F 28.9°F 82% 30.67 in 10.0 miles SE 4.6 mph - N/A   Mostly Cloudy
8:53 AM 34.0°F 28.9°F 82% 30.69 in 10.0 miles SE 5.8 mph - N/A   Mostly Cloudy
9:53 AM 37.9°F 30.9°F 76% 30.70 in 10.0 miles Calm Calm - N/A   Scattered Clouds
10:53 AM 42.1°F 32.0°F 67% 30.71 in 8.0 miles NNW 5.8 mph - N/A   Partly Cloudy
11:53 AM 43.0°F 32.0°F 65% 30.69 in 10.0 miles Calm Calm - N/A   Scattered Clouds
12:53 PM 44.1°F 32.0°F 63% 30.69 in 10.0 miles NNW 4.6 mph - N/A   Scattered Clouds
1:53 PM 44.1°F 30.9°F 60% 30.69 in 10.0 miles NW 4.6 mph - N/A   Mostly Cloudy
2:53 PM 45.0°F 30.0°F 56% 30.70 in 10.0 miles NW 4.6 mph - N/A   Mostly Cloudy
3:27 PM 44.6°F 30.2°F 57% 30.69 in 10.0 miles North 3.5 mph - N/A   Scattered Clouds
3:53 PM 44.1°F 28.9°F 55% 30.69 in 10.0 miles Calm Calm - N/A   Scattered Clouds
4:53 PM 42.1°F 30.0°F 62% 30.68 in 10.0 miles Calm Calm - N/A   Clear
5:53 PM 39.9°F 30.0°F 68% 30.68 in 10.0 miles Calm Calm - N/A   Clear
6:53 PM 39.9°F 28.9°F 65% 30.69 in 10.0 miles Calm Calm - N/A   Clear
7:53 PM 39.0°F 28.9°F 67% 30.69 in 10.0 miles North 3.5 mph - N/A   Clear
8:53 PM 35.1°F 28.0°F 76% 30.69 in 10.0 miles Calm Calm - N/A   Clear
9:53 PM 34.0°F 28.9°F 82% 30.68 in 10.0 miles Calm Calm - N/A   Clear
10:53 PM 34.0°F 30.0°F 85% 30.68 in 10.0 miles Calm Calm - N/A   Clear
11:53 PM 34.0°F 30.0°F 85% 30.68 in 10.0 miles Calm Calm - N/A   Clear
Moon Phase
Jan. 15 Jan. 18 Jan. 26 Feb. 03 Feb. 10
Sunrise:07:52 AM (PST) Moon Rise:09:38 AM (PST)1/15
Sunset:04:45 PM (PST) Moon Set:10:06 PM (PST)1/15

Copyright © 2014 The Weather Underground, Inc.